This demonstration page uses our WeatherBlox Daily Observations layout. Learn more.

Left ArrowRight Arrow

38.80484, -77.04692

Hourly Observations for August 6, 2021

Temp ( °F °C ) Dew Point ( °F °C ) Humidity (%) Winds ( mph kmh ) Pressure ( in mb ) Visibility ( mi km ) Precip ( " mm )
12:52 am 00:52 Mostly Cloudy 74 23.3 65 18.3 74 74 S 9 15 30.15 1021 10 16 N/A
1:52 am 01:52 Mostly Cloudy 73 22.8 65 18.3 76 76 S 8 13 30.15 1021 10 16 N/A
2:52 am 02:52 Mostly Cloudy 73 22.8 65 18.3 76 76 SSW 6 9 30.15 1021 10 16 N/A
3:52 am 03:52 Mostly Cloudy 72 22.2 65 18.3 79 79 S 6 9 30.15 1021 10 16 N/A
4:52 am 04:52 Mostly Cloudy 72 22.2 65 18.3 79 79 SSW 7 11 30.15 1021 10 16 N/A
5:52 am 05:52 Mostly Clear 71 21.7 64 17.8 79 79 SSW 6 9 30.16 1021 10 16 N/A
6:52 am 06:52 Mostly Sunny 71 21.7 64 17.8 79 79 SSW 6 9 30.17 1022 10 16 N/A
7:52 am 07:52 Mostly Sunny 74 23.3 65 18.3 74 74 SSW 6 9 30.19 1022 10 16 N/A
8:52 am 08:52 Partly Cloudy 76 24.4 66 18.9 72 72 S 7 11 30.19 1022 10 16 N/A
9:52 am 09:52 Partly Cloudy 79 26.1 67 19.4 67 67 S 9 15 30.19 1023 10 16 N/A
10:52 am 10:52 Mostly Sunny 83 28.3 66 18.9 57 57 S 9 15 30.19 1023 10 16 N/A
11:52 am 11:52 Mostly Cloudy 85 29.4 65 18.3 51 51 S 13 20 30.18 1022 10 16 N/A
12:52 pm 12:52 Mostly Cloudy 87 30.6 63 17.2 45 45 SSE 10 17 30.17 1022 10 16 N/A
1:52 pm 13:52 Mostly Cloudy 88 31.1 66 18.9 48 48 S 10 17 30.16 1021 10 16 N/A
2:52 pm 14:52 Mostly Cloudy 88 31.1 64 17.8 45 45 S 10 17 30.14 1021 10 16 N/A
3:52 pm 15:52 Mostly Cloudy 89 31.7 61 16.1 39 39 S 7 11 30.12 1020 10 16 N/A
4:52 pm 16:52 Mostly Cloudy 90 32.2 62 16.7 39 39 SSW 7 11 30.11 1020 10 16 N/A
5:52 pm 17:52 Mostly Cloudy 89 31.7 62 16.7 41 41 S 10 17 30.11 1020 10 16 N/A
6:52 pm 18:52 Cloudy 85 29.4 63 17.2 48 48 S 14 22 30.10 1019 10 16 N/A
7:52 pm 19:52 Cloudy 84 28.9 61 16.1 46 46 S 15 24 30.11 1020 10 16 N/A
8:52 pm 20:52 Cloudy 81 27.2 62 16.7 53 53 SSE 12 19 30.11 1020 10 16 N/A
9:52 pm 21:52 Cloudy 79 26.1 65 18.3 62 62 S 12 19 30.13 1020 10 16 N/A
10:52 pm 22:52 Cloudy 78 25.6 65 18.3 64 64 S 10 17 30.13 1020 10 16 N/A
11:52 pm 23:52 Cloudy 76 24.4 65 18.3 69 69 SSW 9 15 30.13 1020 10 16 N/A

Powered by AerisWeather